Погода в Аромашеве

Россия / Тюменская область     56°51′44″N   68°38′33″E
темп.,
°C
ветер,
м/с
пор.,
м/с
влажн.,
%
обл.,
%
осадки,
мм/ч
давл.,
гПа
погр.,
м
11 апреля, вс
вс1123:00+2ю3898100 0.0 1040203
02:00+1ююз389898 0.0 1040224
05:000ю489457 0.0 1041157
08:00+2ююз498585 0.0 1040270
11:00+6ююз6969100 0.0 1039440
14:00+8ююз7116354 0.0 1037528
17:00+7ююз61368100 0.0 1037453
20:00+5ююз61478100 0.0 1036319
12 апреля, пн
пн1223:00+3юз6148056 0.0 1035283
02:00+3юз6148157 0.0 1033266
05:00+2юз5118698 0.0 1033204
08:00+5зюз488796 0.0 1033232
11:00+6з3695100 0.1 1034186
14:00+10сз5674100 0.0 1034927
17:00+11ссз4659100 0.0 1035548
20:00+7ссз3473100 0.0 103645
13 апреля, вт
вт1323:00+5с3575100 0.0 103885
02:00+3ссв22725 0.0 103913
05:00+2зюз11700 0.0 104010
08:00+5зюз23580 0.0 1040161
11:00+9зюз34400 0.0 1040768
14:00+12зюз45330 0.0 10381066
17:00+12зюз56360 0.0 10361030
20:00+8юз47632 0.0 1035114
14 апреля, ср
ср1423:00+7юз410765 0.0 1034163
02:00+6юз4118364 0.0 1033180
05:00+5юз4118797 0.0 1032198
08:00+8юз5127743 0.0 1031343
11:00+13зюз696348 0.0 1029671
14:00+16зюз785815 0.0 10271115
17:00+16зюз685964 0.0 10251237
20:00+12юз410795 0.0 1024193
15 апреля, чт
чт1523:00+10юз498943 0.0 1022164
02:00+9юз410905 0.0 1021186
05:00+7зюз410915 0.0 1020182
08:00+10зюз59735 0.0 1019295
11:00+15з684654 0.0 1018915
14:00+17з67375 0.0 10171235
17:00+17з56396 0.0 10151223
20:00+13зюз34585 0.0 101545